This is the latest recevied weather packets stored in our database for station/object WY1B. If no packets are shown the sender has not sent any weather packets the latest 10 day(s).
| Time | Temp. | Humidity | Pressure | Rain* | Wind** | Luminosity | Snow |
|---|---|---|---|---|---|---|---|
| 1787654897 | 29.44° C | 44% | 1004.9 hPa | 0 mm | - | 0 W/m² | - |
| 1787654593 | 29.44° C | 44% | 1005 hPa | 0 mm | - | 0 W/m² | - |
| 1787654287 | 29.44° C | 43% | 1004.9 hPa | 0 mm | - | 0 W/m² | - |
| 1787653983 | 30° C | 44% | 1004.9 hPa | 0 mm | - | 0 W/m² | - |
| 1787653677 | 30° C | 43% | 1005 hPa | 0 mm | - | 0 W/m² | - |
| 1787653372 | 30° C | 43% | 1004.7 hPa | 0 mm | - | 0 W/m² | - |
| 1787653068 | 30° C | 45% | 1004.8 hPa | 0 mm | - | 0 W/m² | - |
| 1787652763 | 30° C | 42% | 1004.8 hPa | 0 mm | - | 0 W/m² | - |
| 1787652457 | 30° C | 44% | 1004.7 hPa | 0 mm | - | 0 W/m² | - |
| 1787652153 | 30° C | 42% | 1004.6 hPa | 0 mm | - | 0 W/m² | - |
| 1787651852 | 30° C | 42% | 1004.7 hPa | 0 mm | - | 0 W/m² | - |
| 1787651547 | 30° C | 42% | 1004.8 hPa | 0 mm | - | 0 W/m² | - |
| 1787651245 | 30° C | 42% | 1004.9 hPa | 0 mm | - | 0 W/m² | - |
| 1787650942 | 30° C | 41% | 1004.8 hPa | 0 mm | - | 0 W/m² | - |
| 1787650638 | 30° C | 41% | 1004.9 hPa | 0 mm | - | 0 W/m² | - |
| 1787650334 | 30.56° C | 43% | 1004.9 hPa | 0 mm | - | 0 W/m² | - |
| 1787650028 | 30.56° C | 41% | 1004.7 hPa | 0 mm | - | 0 W/m² | - |
| 1787649723 | 30.56° C | 42% | 1004.9 hPa | 0 mm | - | 0 W/m² | - |
| 1787649423 | 30.56° C | 41% | 1004.9 hPa | 0 mm | - | 0 W/m² | - |
| 1787649119 | 30.56° C | 41% | 1004.9 hPa | 0 mm | - | 0 W/m² | - |
| 1787648814 | 30.56° C | 43% | 1005 hPa | 0 mm | - | 0 W/m² | - |
| 1787648512 | 31.11° C | 39% | 1004.8 hPa | 0 mm | - | 0 W/m² | - |
| 1787648210 | 31.11° C | 41% | 1004.9 hPa | 0 mm | - | 0 W/m² | - |
| 1787647906 | 31.67° C | 38% | 1004.8 hPa | 0 mm | - | 0 W/m² | - |
| 1787647602 | 31.67° C | 38% | 1004.8 hPa | 0 mm | - | 0 W/m² | - |
* Rain latest hour (hover to see other rain measurements)
** Current wind speed in m/s (hover to see current wind gust speed)